This is the latest recevied weather packets stored in our database for station/object N7DQ. If no packets are shown the sender has not sent any weather packets the latest 10 day(s).
| Time | Temp. | Humidity | Pressure | Rain* | Wind** | Luminosity | Snow |
|---|---|---|---|---|---|---|---|
| 1777485005 | 14.44° C | 69% | 1024.8 hPa | 0 mm | - | 707 W/m² | - |
| 1777484705 | 14.44° C | 69% | 1024.8 hPa | 0 mm | - | 700 W/m² | - |
| 1777484405 | 14.44° C | 68% | 1024.9 hPa | 0 mm | - | 689 W/m² | - |
| 1777484105 | 14.44° C | 68% | 1024.9 hPa | 0 mm | - | 682 W/m² | - |
| 1777483805 | 14.44° C | 68% | 1024.9 hPa | 0 mm | - | 680 W/m² | - |
| 1777483505 | 13.89° C | 68% | 1025 hPa | 0 mm | - | 663 W/m² | - |
| 1777483206 | 13.89° C | 68% | 1025 hPa | 0 mm | - | 652 W/m² | - |
| 1777441806 | 10.56° C | 76% | 1025.2 hPa | 0 mm | - | 0 W/m² | - |
| 1777441506 | 10.56° C | 76% | 1025.2 hPa | 0 mm | - | 0 W/m² | - |
| 1777441206 | 10.56° C | 76% | 1025.2 hPa | 0 mm | - | 0 W/m² | - |
| 1777440906 | 10.56° C | 76% | 1025.1 hPa | 0 mm | - | 0 W/m² | - |
| 1777440606 | 10.56° C | 76% | 1025.1 hPa | 0 mm | - | 0 W/m² | - |
| 1777440306 | 10.56° C | 76% | 1025.1 hPa | 0 mm | - | 0 W/m² | - |
| 1777440006 | 10.56° C | 76% | 1025.2 hPa | 0 mm | - | 0 W/m² | - |
| 1777439705 | 10.56° C | 76% | 1025.2 hPa | 0 mm | - | 0 W/m² | - |
| 1777439406 | 10.56° C | 76% | 1025.2 hPa | 0 mm | - | 0 W/m² | - |
| 1777439106 | 10.56° C | 75% | 1025.2 hPa | 0 mm | - | 0 W/m² | - |
| 1777438806 | 10.56° C | 75% | 1025.1 hPa | 0 mm | - | 0 W/m² | - |
| 1777438506 | 10.56° C | 75% | 1025 hPa | 0 mm | - | 0 W/m² | - |
| 1777415105 | 14.44° C | 65% | 1024.2 hPa | 0 mm | - | 281 W/m² | - |
| 1777414805 | 14.44° C | 66% | 1024.3 hPa | 0 mm | - | 290 W/m² | - |
| 1777414505 | 14.44° C | 64% | 1024.3 hPa | 0 mm | - | 323 W/m² | - |
| 1777414205 | 14.44° C | 62% | 1024.4 hPa | 0 mm | - | 357 W/m² | - |
| 1777413905 | 15° C | 61% | 1024.3 hPa | 0 mm | - | 345 W/m² | - |
| 1777413605 | 15° C | 61% | 1024.4 hPa | 0 mm | - | 327 W/m² | - |
* Rain latest hour (hover to see other rain measurements)
** Current wind speed in m/s (hover to see current wind gust speed)